TimePST,TemperatureF,Dew PointF,Humidity,Sea Level PressureIn,VisibilityMPH,Wind Direction,Wind SpeedMPH,Gust SpeedMPH,PrecipitationIn,Events,Conditions,WindDirDegrees,DateUTC
12:19 AM,55.4,46.4,72,29.98,10.0,Calm,Calm,-,N/A,,Mostly Cloudy,0,2012-11-08 08:19:00
12:36 AM,55.4,46.4,72,29.98,10.0,Calm,Calm,-,N/A,,Scattered Clouds,0,2012-11-08 08:36:00
12:56 AM,54.0,46.9,77,29.98,10.0,Calm,Calm,-,N/A,,Clear,0,2012-11-08 08:56:00
1:56 AM,54.0,46.9,77,29.97,10.0,West,4.6,-,N/A,,Partly Cloudy,280,2012-11-08 09:56:00
2:56 AM,55.0,44.1,67,29.98,10.0,WNW,6.9,-,N/A,,Overcast,300,2012-11-08 10:56:00
3:56 AM,54.0,42.1,64,29.98,10.0,West,3.5,-,N/A,,Mostly Cloudy,270,2012-11-08 11:56:00
4:56 AM,55.0,42.1,62,29.99,10.0,Calm,Calm,-,N/A,,Overcast,0,2012-11-08 12:56:00
5:56 AM,55.0,43.0,64,30.00,10.0,West,3.5,-,N/A,,Mostly Cloudy,280,2012-11-08 13:56:00
6:56 AM,55.0,39.9,57,30.00,10.0,Calm,Calm,-,N/A,,Overcast,0,2012-11-08 14:56:00
7:56 AM,55.0,41.0,59,30.00,10.0,South,5.8,-,N/A,,Scattered Clouds,190,2012-11-08 15:56:00
8:56 AM,57.9,41.0,53,30.00,10.0,West,3.5,-,N/A,,Clear,260,2012-11-08 16:56:00
9:56 AM,60.1,39.9,47,30.00,10.0,West,6.9,-,N/A,,Scattered Clouds,270,2012-11-08 17:56:00
10:56 AM,60.1,41.0,49,30.00,10.0,West,10.4,19.6,N/A,,Overcast,260,2012-11-08 18:56:00
11:56 AM,62.1,41.0,46,29.97,10.0,SW,10.4,-,N/A,,Partly Cloudy,230,2012-11-08 19:56:00
12:56 PM,61.0,41.0,48,29.95,10.0,West,11.5,-,0.00,,Overcast,260,2012-11-08 20:56:00
1:56 PM,57.0,46.9,69,29.94,10.0,SSW,8.1,-,0.00,Rain,Light Rain,200,2012-11-08 21:56:00
2:31 PM,55.4,48.2,77,29.93,2.5,West,9.2,-,0.02,Rain,Rain,280,2012-11-08 22:31:00
2:44 PM,53.6,50.0,88,29.93,10.0,West,5.8,-,0.03,Rain,Light Rain,270,2012-11-08 22:44:00
2:56 PM,54.0,50.0,86,29.94,10.0,West,4.6,-,0.03,,Overcast,260,2012-11-08 22:56:00
3:56 PM,55.0,46.9,74,29.94,10.0,West,6.9,-,0.00,,Overcast,270,2012-11-08 23:56:00
4:56 PM,54.0,45.0,72,29.93,10.0,SW,3.5,-,0.00,,Overcast,230,2012-11-09 00:56:00
5:56 PM,53.1,44.1,71,29.94,10.0,Calm,Calm,-,N/A,,Scattered Clouds,0,2012-11-09 01:56:00
6:56 PM,52.0,43.0,71,29.94,10.0,West,5.8,-,0.00,,Scattered Clouds,260,2012-11-09 02:56:00
7:56 PM,51.1,42.1,71,29.94,10.0,Calm,Calm,-,N/A,,Clear,0,2012-11-09 03:56:00
8:56 PM,50.0,42.1,74,29.94,10.0,Calm,Calm,-,N/A,,Clear,0,2012-11-09 04:56:00
9:56 PM,48.9,42.1,77,29.95,10.0,South,3.5,-,N/A,,Clear,190,2012-11-09 05:56:00
10:56 PM,48.0,41.0,77,29.95,10.0,Calm,Calm,-,N/A,,Clear,0,2012-11-09 06:56:00
11:56 PM,45.0,41.0,86,29.95,10.0,ESE,4.6,-,N/A,,Clear,120,2012-11-09 07:56:00